Terug naar catalogus

STARLINK-37227

ActiefCommunicatieVLEO
NORAD 68558·PAYLOAD·🇺🇸 United States

Gelanceerd Apr 2, 2026 vanaf Cape Canaveral Space Force Station

Loading…

Volgende Passages (komende 24 uur)

TLE

VersSource: CelesTrak SupGP

Epoch: Sep 14, 2026, 21:07 UTC

1 68558C 26070S   26257.88034722  .00022490  00000+0  66426-3 0  2573
2 68558  53.1576 199.8557 0001300  89.0533  11.8107 15.34388696    19

Volg STARLINK-37227 in realtime met AllMySat

Download on the App Store